Regional Weather Roundup
Issued by NWS

Home | Current Version | Previous Version | Text Only | Print | Product List | Glossary Off
Versions: 1 2 3 4 5 6 7 8 9 10 11 12 13 14 15 16 17 18 19 20 21 22 23 24 25 26 27

000
ASUS45 KSLC 252110
RWRUT

UTAH REGIONAL WEATHER ROUNDUP
NATIONAL WEATHER SERVICE SALT LAKE CITY UT
200 PM MST SAT FEB 25 2017

UTZ001>011-023>025-252200-

NORTHERN UTAH

CITY           SKY/WX    TMP DP  RH WIND       PRES   REMARKS
BRIGHAM CITY     N/A     31  19  61 SW6       30.05F WCI  26
HILL AFB       LGT SNOW  27  21  80 W17       30.02F VSB 1   WCI  14
LOGAN          CLOUDY    30  20  66 CALM      30.03F
OGDEN          PTSUNNY   29  16  58 W9        30.03F WCI  20
SALT LAKE CITY PTSUNNY   32  19  58 VRB7      30.04F WCI  26
TOOELE VALLEY  CLOUDY    34  18  51 CALM      30.04F
WENDOVER       CLOUDY    36  14  41 SE6       30.03F WCI  31
HEBER CITY     PTSUNNY   25  12  58 CALM      29.98F
WEST JORDAN    MOSUNNY   33  26  75 SE7       30.04F WCI  26

$$

UTZ011>015-024>027-252200-

CENTRAL/NORTHEAST UTAH

CITY           SKY/WX    TMP DP  RH WIND       PRES   REMARKS
PROVO AIRPORT  PTSUNNY   27  16  63 W5        30.06F WCI  22
MOAB/CANYONLAN MOSUNNY   42   4  20 SW10      29.96F
DELTA          PTSUNNY   32  14  47 CALM      30.03F
PRICE          PTSUNNY   29  10  45 VRB3      29.95F
RICHFIELD      CLOUDY    34  18  51 NE8       30.00F WCI  27
ROOSEVELT      CLOUDY    28  18  64 E5        30.00F WCI  23
VERNAL         SUNNY     24  14  65 CALM      29.98F

$$

UTZ013>016-019>022-027-252200-

SOUTHERN UTAH

CITY           SKY/WX    TMP DP  RH WIND       PRES   REMARKS
BRYCE CANYON   LGT SNOW  23  14  68 S5        29.95F WCI  17
CEDAR CITY     PTSUNNY   39  12  33 SW9       29.94F WCI  33
MILFORD        PTSUNNY   38  15  39 S9        29.97F WCI  31
ST GEORGE      MOCLDY    48  15  26 CALM      30.03F
HANKSVILLE     MOSUNNY   41   5  22 NW6       29.99F
KANAB          SUNNY     45  12  26 S9G16     30.01F
BLANDING       PTSUNNY   37   6  27 SW3       30.04F

$$

REGIONAL REPORTS     COLORADO/ARIZONA

CITY           SKY/WX    TMP DP  RH WIND       PRES   REMARKS
CRAIG, CO      CLOUDY    24   7  48 W21       29.93F WCI   9
GRAND JUNCTION PTSUNNY   34  13  41 N8        29.98F WCI  27
RIFLE, CO      CLOUDY    31  12  45 W18       29.96F WCI  19
MONTROSE, CO   CLOUDY    33   5  30 VRB3      29.97
CORTEZ, CO     CLOUDY    35   4  27 NW13G20   29.97F WCI  26
COLORADO CITY    N/A     46  16  29 S5        30.01F
PAGE, AZ       SUNNY     44   4  19 N7        29.98F
GRAND CANYON   MOSUNNY   41  11  29 SW16G28   29.97F
KINGMAN, AZ    MOSUNNY   54  -5   8 SW17G28   30.02F
FLAGSTAFF, AZ  SUNNY     40   5  23 SW15G25   29.98F WCI  32

$$

REGIONAL REPORTS    NEVADA/IDAHO/WYOMING

CITY           SKY/WX    TMP DP  RH WIND       PRES   REMARKS
LAS VEGAS, NV  PTSUNNY   51  15  23 NE7       29.99F
ELY, NY        PTSUNNY   28  14  55 E5        29.97F WCI  23
ELKO, NV       CLOUDY    31  13  47 VRB3      30.03F
POCATELLO, ID  MOSUNNY   24  15  68 W12       30.04F WCI  13
BURLEY, ID     MIX PCPN  31  14  49 W15G21    30.04F WCI  20
FORT BRIDGER,    N/A     20  13  74 W24G31    29.91F WCI   3
EVANSTON, WY   SUNNY     19   8  62 SW21      29.89F WCI   3
ROCK SPRINGS,  CLOUDY    17   7  64 W20       29.87F WCI   1

$$




USA.gov is the U.S. government's official web portal to all federal, state and local government web resources and services.